Time,TemperatureF,DewpointF,PressureIn,WindDirection,WindDirectionDegrees,WindSpeedMPH,WindSpeedGustMPH,Humidity,HourlyPrecipIn,Conditions,Clouds,dailyrainin,SoftwareType,DateUTC
2013-01-11 00:02:00,43.7,29.8,29.99,North,-999,-999.0,-999.0,41,0.00,,,0.00,meteohub,2013-01-11 08:02:00,
2013-01-11 00:07:00,43.7,29.8,29.99,North,-999,-999.0,-999.0,41,0.00,,,0.00,meteohub,2013-01-11 08:07:00,
2013-01-11 00:12:00,43.7,29.5,29.99,North,-999,-999.0,-999.0,41,0.00,,,0.00,meteohub,2013-01-11 08:12:00,
2013-01-11 00:17:00,43.5,28.9,29.99,North,-999,-999.0,-999.0,41,0.00,,,0.00,meteohub,2013-01-11 08:17:00,
2013-01-11 00:22:00,43.7,28.2,29.99,North,-999,-999.0,-999.0,41,0.00,,,0.00,meteohub,2013-01-11 08:22:00,
2013-01-11 00:27:00,43.9,27.9,29.99,North,-999,-999.0,-999.0,41,0.00,,,0.00,meteohub,2013-01-11 08:27:00,
2013-01-11 00:32:00,43.9,27.9,29.99,North,-999,-999.0,-999.0,41,0.00,,,0.00,meteohub,2013-01-11 08:32:00,
2013-01-11 00:37:00,44.1,28.0,29.99,North,-999,-999.0,-999.0,41,0.00,,,0.00,meteohub,2013-01-11 08:37:00,
2013-01-11 00:42:00,44.1,28.4,29.99,North,-999,-999.0,-999.0,41,0.00,,,0.00,meteohub,2013-01-11 08:42:00,
2013-01-11 00:47:00,44.1,28.0,29.99,North,-999,-999.0,-999.0,41,0.00,,,0.00,meteohub,2013-01-11 08:47:00,
2013-01-11 00:52:00,43.7,28.2,29.99,North,-999,-999.0,-999.0,41,0.00,,,0.00,meteohub,2013-01-11 08:52:00,
2013-01-11 00:57:00,43.5,28.4,29.99,North,-999,-999.0,-999.0,41,0.00,,,0.00,meteohub,2013-01-11 08:57:00,
2013-01-11 01:02:00,43.2,28.0,29.99,North,-999,-999.0,-999.0,41,0.00,,,0.00,meteohub,2013-01-11 09:02:00,
2013-01-11 01:07:00,43.2,28.0,29.99,North,-999,-999.0,-999.0,41,0.00,,,0.00,meteohub,2013-01-11 09:07:00,
2013-01-11 01:12:00,43.0,28.4,29.99,North,-999,-999.0,-999.0,41,0.00,,,0.00,meteohub,2013-01-11 09:12:00,
2013-01-11 01:17:00,43.0,28.4,29.99,North,-999,-999.0,-999.0,41,0.00,,,0.00,meteohub,2013-01-11 09:17:00,
2013-01-11 01:22:00,42.8,28.6,29.99,North,-999,-999.0,-999.0,41,0.00,,,0.00,meteohub,2013-01-11 09:22:00,
2013-01-11 01:27:00,42.6,28.9,29.99,North,-999,-999.0,-999.0,41,0.00,,,0.00,meteohub,2013-01-11 09:27:00,
2013-01-11 01:32:00,42.4,28.8,29.99,North,-999,-999.0,-999.0,41,0.00,,,0.00,meteohub,2013-01-11 09:32:00,
2013-01-11 01:37:00,42.3,28.6,29.99,North,-999,-999.0,-999.0,41,0.00,,,0.00,meteohub,2013-01-11 09:37:00,
2013-01-11 01:42:00,42.1,28.8,29.99,North,-999,-999.0,-999.0,41,0.00,,,0.00,meteohub,2013-01-11 09:42:00,
2013-01-11 01:47:00,41.7,28.4,29.99,North,-999,-999.0,-999.0,41,0.00,,,0.00,meteohub,2013-01-11 09:47:00,
2013-01-11 01:52:00,41.5,28.2,29.99,North,-999,-999.0,-999.0,41,0.00,,,0.00,meteohub,2013-01-11 09:52:00,
2013-01-11 01:57:00,41.7,28.9,29.99,North,-999,-999.0,-999.0,41,0.00,,,0.00,meteohub,2013-01-11 09:57:00,
2013-01-11 02:02:00,42.3,29.3,29.99,North,-999,-999.0,-999.0,41,0.00,,,0.00,meteohub,2013-01-11 10:02:00,
2013-01-11 02:07:00,42.8,29.1,29.99,North,-999,-999.0,-999.0,41,0.00,,,0.00,meteohub,2013-01-11 10:07:00,
2013-01-11 02:12:00,43.2,28.9,29.99,North,-999,-999.0,-999.0,41,0.00,,,0.00,meteohub,2013-01-11 10:12:00,
2013-01-11 02:17:00,43.5,28.9,29.99,North,-999,-999.0,-999.0,41,0.00,,,0.00,meteohub,2013-01-11 10:17:00,
2013-01-11 02:22:00,43.7,29.1,29.99,North,-999,-999.0,-999.0,41,0.00,,,0.00,meteohub,2013-01-11 10:22:00,
2013-01-11 02:27:00,43.5,28.9,29.99,North,-999,-999.0,-999.0,41,0.00,,,0.00,meteohub,2013-01-11 10:27:00,
2013-01-11 02:32:00,43.3,29.1,29.99,North,-999,-999.0,-999.0,41,0.00,,,0.00,meteohub,2013-01-11 10:32:00,
2013-01-11 02:37:00,43.3,29.1,29.99,North,-999,-999.0,-999.0,41,0.00,,,0.00,meteohub,2013-01-11 10:37:00,
2013-01-11 02:42:00,43.3,29.1,29.99,North,-999,-999.0,-999.0,41,0.00,,,0.00,meteohub,2013-01-11 10:42:00,
2013-01-11 02:48:00,43.3,29.1,29.99,North,-999,-999.0,-999.0,41,0.00,,,0.00,meteohub,2013-01-11 10:48:00,
2013-01-11 02:53:00,43.3,28.8,29.99,North,-999,-999.0,-999.0,41,0.00,,,0.00,meteohub,2013-01-11 10:53:00,
2013-01-11 02:58:00,43.5,28.9,29.99,North,-999,-999.0,-999.0,41,0.00,,,0.00,meteohub,2013-01-11 10:58:00,
2013-01-11 03:03:00,43.5,28.4,29.99,North,-999,-999.0,-999.0,41,0.00,,,0.00,meteohub,2013-01-11 11:03:00,
2013-01-11 03:08:00,43.7,28.6,29.99,North,-999,-999.0,-999.0,41,0.00,,,0.00,meteohub,2013-01-11 11:08:00,
2013-01-11 03:13:00,43.7,28.6,29.99,North,-999,-999.0,-999.0,41,0.00,,,0.00,meteohub,2013-01-11 11:13:00,
2013-01-11 03:18:00,43.7,28.6,29.99,North,-999,-999.0,-999.0,41,0.00,,,0.00,meteohub,2013-01-11 11:18:00,
2013-01-11 03:23:00,43.7,28.6,29.99,North,-999,-999.0,-999.0,41,0.00,,,0.00,meteohub,2013-01-11 11:23:00,
2013-01-11 03:29:00,43.5,28.9,29.99,North,-999,-999.0,-999.0,41,0.00,,,0.00,meteohub,2013-01-11 11:29:00,
2013-01-11 03:34:00,43.3,29.1,29.99,North,-999,-999.0,-999.0,41,0.00,,,0.00,meteohub,2013-01-11 11:34:00,
2013-01-11 03:39:00,43.2,29.3,29.99,North,-999,-999.0,-999.0,41,0.00,,,0.00,meteohub,2013-01-11 11:39:00,
2013-01-11 03:44:00,43.0,29.3,29.99,North,-999,-999.0,-999.0,41,0.00,,,0.00,meteohub,2013-01-11 11:44:00,
2013-01-11 03:49:00,43.0,29.7,29.99,North,-999,-999.0,-999.0,41,0.00,,,0.00,meteohub,2013-01-11 11:49:00,
2013-01-11 03:54:00,42.8,29.5,29.99,North,-999,-999.0,-999.0,41,0.00,,,0.00,meteohub,2013-01-11 11:54:00,
2013-01-11 03:59:00,42.6,29.7,29.99,North,-999,-999.0,-999.0,41,0.00,,,0.00,meteohub,2013-01-11 11:59:00,
2013-01-11 04:04:00,42.6,29.7,29.99,North,-999,-999.0,-999.0,41,0.00,,,0.00,meteohub,2013-01-11 12:04:00,
2013-01-11 04:10:00,42.8,29.1,29.99,North,-999,-999.0,-999.0,41,0.00,,,0.00,meteohub,2013-01-11 12:10:00,
2013-01-11 04:15:00,42.8,29.1,29.99,North,-999,-999.0,-999.0,41,0.00,,,0.00,meteohub,2013-01-11 12:15:00,
2013-01-11 04:20:00,42.6,28.9,29.99,North,-999,-999.0,-999.0,41,0.00,,,0.00,meteohub,2013-01-11 12:20:00,
2013-01-11 04:25:00,42.6,28.9,29.99,North,-999,-999.0,-999.0,41,0.00,,,0.00,meteohub,2013-01-11 12:25:00,
2013-01-11 04:30:00,42.4,29.1,29.99,North,-999,-999.0,-999.0,41,0.00,,,0.00,meteohub,2013-01-11 12:30:00,
2013-01-11 04:35:00,42.4,28.8,29.99,North,-999,-999.0,-999.0,41,0.00,,,0.00,meteohub,2013-01-11 12:35:00,
2013-01-11 04:40:00,42.4,28.8,29.99,North,-999,-999.0,-999.0,42,0.00,,,0.00,meteohub,2013-01-11 12:40:00,
2013-01-11 04:45:00,42.4,28.8,29.99,North,-999,-999.0,-999.0,42,0.00,,,0.00,meteohub,2013-01-11 12:45:00,
2013-01-11 04:50:00,42.4,28.8,29.99,North,-999,-999.0,-999.0,42,0.00,,,0.00,meteohub,2013-01-11 12:50:00,
2013-01-11 04:55:00,42.1,28.8,29.99,North,-999,-999.0,-999.0,42,0.00,,,0.00,meteohub,2013-01-11 12:55:00,
2013-01-11 05:00:00,41.7,28.4,29.99,North,-999,-999.0,-999.0,42,0.00,,,0.00,meteohub,2013-01-11 13:00:00,
2013-01-11 05:06:00,41.4,28.6,29.99,North,-999,-999.0,-999.0,42,0.00,,,0.00,meteohub,2013-01-11 13:06:00,
2013-01-11 05:11:00,41.0,28.2,29.99,North,-999,-999.0,-999.0,41,0.00,,,0.00,meteohub,2013-01-11 13:11:00,
2013-01-11 05:16:00,40.5,28.4,29.99,North,-999,-999.0,-999.0,42,0.00,,,0.00,meteohub,2013-01-11 13:16:00,
2013-01-11 05:21:00,40.3,28.8,29.99,North,-999,-999.0,-999.0,42,0.00,,,0.00,meteohub,2013-01-11 13:21:00,
2013-01-11 05:26:00,40.1,28.6,29.99,North,-999,-999.0,-999.0,42,0.00,,,0.00,meteohub,2013-01-11 13:26:00,
2013-01-11 05:31:00,39.9,28.4,29.99,North,-999,-999.0,-999.0,42,0.00,,,0.00,meteohub,2013-01-11 13:31:00,
2013-01-11 05:36:00,39.7,28.2,29.99,North,-999,-999.0,-999.0,42,0.00,,,0.00,meteohub,2013-01-11 13:36:00,
2013-01-11 05:41:00,39.6,28.4,30.01,North,-999,-999.0,-999.0,42,0.00,,,0.00,meteohub,2013-01-11 13:41:00,
2013-01-11 05:46:00,39.4,28.6,30.01,North,-999,-999.0,-999.0,42,0.00,,,0.00,meteohub,2013-01-11 13:46:00,
2013-01-11 05:51:00,39.2,28.8,30.01,North,-999,-999.0,-999.0,42,0.00,,,0.00,meteohub,2013-01-11 13:51:00,
2013-01-11 05:56:00,39.0,29.3,30.01,North,-999,-999.0,-999.0,42,0.00,,,0.00,meteohub,2013-01-11 13:56:00,
2013-01-11 06:02:00,38.8,29.1,30.01,North,-999,-999.0,-999.0,42,0.00,,,0.00,meteohub,2013-01-11 14:02:00,
2013-01-11 06:07:00,38.8,29.5,30.01,North,-999,-999.0,-999.0,42,0.00,,,0.00,meteohub,2013-01-11 14:07:00,
2013-01-11 06:12:00,38.7,29.3,30.01,North,-999,-999.0,-999.0,42,0.00,,,0.00,meteohub,2013-01-11 14:12:00,
2013-01-11 06:17:00,38.7,29.7,30.01,North,-999,-999.0,-999.0,42,0.00,,,0.00,meteohub,2013-01-11 14:17:00,
2013-01-11 06:22:00,38.5,29.5,30.01,North,-999,-999.0,-999.0,42,0.00,,,0.00,meteohub,2013-01-11 14:22:00,
2013-01-11 06:27:00,38.3,28.9,30.01,North,-999,-999.0,-999.0,42,0.00,,,0.00,meteohub,2013-01-11 14:27:00,
2013-01-11 06:32:00,38.1,29.1,30.01,North,-999,-999.0,-999.0,42,0.00,,,0.00,meteohub,2013-01-11 14:32:00,
2013-01-11 06:37:00,38.1,29.1,30.01,North,-999,-999.0,-999.0,42,0.00,,,0.00,meteohub,2013-01-11 14:37:00,
2013-01-11 06:42:00,37.9,29.1,30.01,North,-999,-999.0,-999.0,42,0.00,,,0.00,meteohub,2013-01-11 14:42:00,
2013-01-11 06:47:00,37.9,29.3,30.01,North,-999,-999.0,-999.0,42,0.00,,,0.00,meteohub,2013-01-11 14:47:00,
2013-01-11 06:52:00,37.9,29.3,30.01,North,-999,-999.0,-999.0,41,0.00,,,0.00,meteohub,2013-01-11 14:52:00,
2013-01-11 06:57:00,37.8,29.1,30.01,North,-999,-999.0,-999.0,41,0.00,,,0.00,meteohub,2013-01-11 14:57:00,
2013-01-11 07:02:00,37.8,29.1,30.01,North,-999,-999.0,-999.0,41,0.00,,,0.00,meteohub,2013-01-11 15:02:00,
2013-01-11 07:07:00,37.8,29.5,30.01,North,-999,-999.0,-999.0,41,0.00,,,0.00,meteohub,2013-01-11 15:07:00,
2013-01-11 07:12:00,37.6,29.3,30.01,North,-999,-999.0,-999.0,41,0.00,,,0.00,meteohub,2013-01-11 15:12:00,
2013-01-11 07:17:00,37.6,29.3,30.01,North,-999,-999.0,-999.0,41,0.00,,,0.00,meteohub,2013-01-11 15:17:00,
2013-01-11 07:22:00,37.6,29.3,30.01,North,-999,-999.0,-999.0,41,0.00,,,0.00,meteohub,2013-01-11 15:22:00,
2013-01-11 07:27:00,37.6,29.7,30.01,North,-999,-999.0,-999.0,40,0.00,,,0.00,meteohub,2013-01-11 15:27:00,
2013-01-11 07:32:00,37.6,29.7,30.01,North,-999,-999.0,-999.0,40,0.00,,,0.00,meteohub,2013-01-11 15:32:00,
2013-01-11 07:37:00,37.6,29.7,30.01,North,-999,-999.0,-999.0,40,0.00,,,0.00,meteohub,2013-01-11 15:37:00,
2013-01-11 07:42:00,37.8,29.8,30.01,North,-999,-999.0,-999.0,40,0.00,,,0.00,meteohub,2013-01-11 15:42:00,
2013-01-11 07:47:00,37.8,30.2,30.01,North,-999,-999.0,-999.0,40,0.00,,,0.00,meteohub,2013-01-11 15:47:00,
2013-01-11 07:52:00,37.9,30.4,30.01,North,-999,-999.0,-999.0,40,0.00,,,0.00,meteohub,2013-01-11 15:52:00,
2013-01-11 07:57:00,37.9,30.4,30.04,North,-999,-999.0,-999.0,40,0.00,,,0.00,meteohub,2013-01-11 15:57:00,
2013-01-11 08:02:00,38.1,30.6,30.04,North,-999,-999.0,-999.0,40,0.00,,,0.00,meteohub,2013-01-11 16:02:00,
2013-01-11 08:07:00,38.3,30.7,30.04,North,-999,-999.0,-999.0,40,0.00,,,0.00,meteohub,2013-01-11 16:07:00,
2013-01-11 08:12:00,38.5,31.3,30.04,North,-999,-999.0,-999.0,40,0.00,,,0.00,meteohub,2013-01-11 16:12:00,
2013-01-11 08:17:00,38.7,31.5,30.04,North,-999,-999.0,-999.0,40,0.00,,,0.00,meteohub,2013-01-11 16:17:00,
2013-01-11 08:23:00,38.8,31.3,30.04,North,-999,-999.0,-999.0,40,0.00,,,0.00,meteohub,2013-01-11 16:23:00,
2013-01-11 08:28:00,39.0,31.8,30.04,North,-999,-999.0,-999.0,40,0.00,,,0.00,meteohub,2013-01-11 16:28:00,
2013-01-11 08:33:00,39.2,31.6,30.04,North,-999,-999.0,-999.0,40,0.00,,,0.00,meteohub,2013-01-11 16:33:00,
2013-01-11 08:38:00,39.4,31.8,30.04,North,-999,-999.0,-999.0,40,0.00,,,0.00,meteohub,2013-01-11 16:38:00,
2013-01-11 08:43:00,39.4,31.8,30.04,North,-999,-999.0,-999.0,40,0.00,,,0.00,meteohub,2013-01-11 16:43:00,
2013-01-11 08:48:00,39.7,32.2,30.04,North,-999,-999.0,-999.0,40,0.00,,,0.00,meteohub,2013-01-11 16:48:00,
2013-01-11 08:53:00,39.9,32.4,30.04,North,-999,-999.0,-999.0,40,0.00,,,0.00,meteohub,2013-01-11 16:53:00,
2013-01-11 08:58:00,40.5,32.9,30.04,North,-999,-999.0,-999.0,40,0.00,,,0.00,meteohub,2013-01-11 16:58:00,
2013-01-11 09:03:00,41.0,33.4,30.04,North,-999,-999.0,-999.0,40,0.00,,,0.00,meteohub,2013-01-11 17:03:00,
2013-01-11 09:08:00,41.7,34.0,30.04,North,-999,-999.0,-999.0,40,0.00,,,0.00,meteohub,2013-01-11 17:08:00,
2013-01-11 09:13:00,42.4,34.3,30.04,North,-999,-999.0,-999.0,40,0.00,,,0.00,meteohub,2013-01-11 17:13:00,
2013-01-11 09:19:00,43.2,34.7,30.04,North,-999,-999.0,-999.0,40,0.00,,,0.00,meteohub,2013-01-11 17:19:00,
2013-01-11 09:24:00,43.7,35.2,30.04,North,-999,-999.0,-999.0,40,0.00,,,0.00,meteohub,2013-01-11 17:24:00,
2013-01-11 09:29:00,44.1,34.5,30.04,North,-999,-999.0,-999.0,40,0.00,,,0.00,meteohub,2013-01-11 17:29:00,
2013-01-11 09:34:00,44.4,34.9,30.04,North,-999,-999.0,-999.0,40,0.00,,,0.00,meteohub,2013-01-11 17:34:00,
2013-01-11 09:39:00,44.8,34.5,30.04,North,-999,-999.0,-999.0,40,0.00,,,0.00,meteohub,2013-01-11 17:39:00,
2013-01-11 09:44:00,45.1,34.9,30.04,North,-999,-999.0,-999.0,40,0.00,,,0.00,meteohub,2013-01-11 17:44:00,
2013-01-11 09:49:00,45.5,34.3,30.04,North,-999,-999.0,-999.0,40,0.00,,,0.00,meteohub,2013-01-11 17:49:00,
2013-01-11 09:54:00,45.9,34.3,30.04,North,-999,-999.0,-999.0,40,0.00,,,0.00,meteohub,2013-01-11 17:54:00,
2013-01-11 09:59:00,46.2,34.3,30.04,North,-999,-999.0,-999.0,40,0.00,,,0.00,meteohub,2013-01-11 17:59:00,
2013-01-11 10:04:00,46.4,33.3,30.04,North,-999,-999.0,-999.0,40,0.00,,,0.00,meteohub,2013-01-11 18:04:00,
2013-01-11 10:09:00,46.8,32.7,30.04,North,-999,-999.0,-999.0,40,0.00,,,0.00,meteohub,2013-01-11 18:09:00,
2013-01-11 10:15:00,47.1,32.2,30.04,North,-999,-999.0,-999.0,40,0.00,,,0.00,meteohub,2013-01-11 18:15:00,
2013-01-11 10:20:00,47.3,31.1,30.04,North,-999,-999.0,-999.0,40,0.00,,,0.00,meteohub,2013-01-11 18:20:00,
2013-01-11 10:25:00,47.7,30.9,30.04,North,-999,-999.0,-999.0,39,0.00,,,0.00,meteohub,2013-01-11 18:25:00,
2013-01-11 10:30:00,47.8,31.1,30.04,North,-999,-999.0,-999.0,39,0.00,,,0.00,meteohub,2013-01-11 18:30:00,
2013-01-11 10:35:00,48.2,30.0,30.04,North,-999,-999.0,-999.0,39,0.00,,,0.00,meteohub,2013-01-11 18:35:00,
2013-01-11 10:40:00,48.6,29.8,30.04,North,-999,-999.0,-999.0,39,0.00,,,0.00,meteohub,2013-01-11 18:40:00,
2013-01-11 10:45:00,48.9,30.0,30.04,North,-999,-999.0,-999.0,39,0.00,,,0.00,meteohub,2013-01-11 18:45:00,
2013-01-11 10:50:00,49.1,30.2,30.04,North,-999,-999.0,-999.0,39,0.00,,,0.00,meteohub,2013-01-11 18:50:00,
2013-01-11 10:55:00,49.3,29.8,30.01,North,-999,-999.0,-999.0,39,0.00,,,0.00,meteohub,2013-01-11 18:55:00,
2013-01-11 11:00:00,49.8,29.3,30.01,North,-999,-999.0,-999.0,39,0.00,,,0.00,meteohub,2013-01-11 19:00:00,
2013-01-11 11:06:00,50.2,28.6,30.01,North,-999,-999.0,-999.0,39,0.00,,,0.00,meteohub,2013-01-11 19:06:00,
2013-01-11 11:11:00,50.5,29.5,30.01,North,-999,-999.0,-999.0,39,0.00,,,0.00,meteohub,2013-01-11 19:11:00,
2013-01-11 11:16:00,50.9,30.4,30.01,North,-999,-999.0,-999.0,39,0.00,,,0.00,meteohub,2013-01-11 19:16:00,
2013-01-11 11:21:00,51.1,29.8,30.01,North,-999,-999.0,-999.0,39,0.00,,,0.00,meteohub,2013-01-11 19:21:00,
2013-01-11 11:26:00,51.4,30.7,29.99,North,-999,-999.0,-999.0,39,0.00,,,0.00,meteohub,2013-01-11 19:26:00,
2013-01-11 11:31:00,51.8,30.0,29.99,North,-999,-999.0,-999.0,39,0.00,,,0.00,meteohub,2013-01-11 19:31:00,
2013-01-11 11:36:00,52.3,29.8,29.99,North,-999,-999.0,-999.0,39,0.00,,,0.00,meteohub,2013-01-11 19:36:00,
2013-01-11 11:41:00,52.9,30.4,29.99,North,-999,-999.0,-999.0,39,0.00,,,0.00,meteohub,2013-01-11 19:41:00,
2013-01-11 11:46:00,52.9,29.8,29.99,North,-999,-999.0,-999.0,38,0.00,,,0.00,meteohub,2013-01-11 19:46:00,
2013-01-11 11:51:00,53.1,30.6,29.99,North,-999,-999.0,-999.0,38,0.00,,,0.00,meteohub,2013-01-11 19:51:00,
2013-01-11 11:57:00,53.1,30.6,29.99,North,-999,-999.0,-999.0,38,0.00,,,0.00,meteohub,2013-01-11 19:57:00,
2013-01-11 12:02:00,53.1,29.3,29.99,North,-999,-999.0,-999.0,38,0.00,,,0.00,meteohub,2013-01-11 20:02:00,
2013-01-11 12:07:00,53.1,30.0,29.99,North,-999,-999.0,-999.0,38,0.00,,,0.00,meteohub,2013-01-11 20:07:00,
2013-01-11 12:12:00,53.2,30.2,29.96,North,-999,-999.0,-999.0,38,0.00,,,0.00,meteohub,2013-01-11 20:12:00,
2013-01-11 12:17:00,53.6,29.3,29.96,North,-999,-999.0,-999.0,38,0.00,,,0.00,meteohub,2013-01-11 20:17:00,
2013-01-11 12:22:00,53.8,29.5,29.96,North,-999,-999.0,-999.0,38,0.00,,,0.00,meteohub,2013-01-11 20:22:00,
2013-01-11 12:27:00,54.3,29.8,29.96,North,-999,-999.0,-999.0,38,0.00,,,0.00,meteohub,2013-01-11 20:27:00,
2013-01-11 12:32:00,54.3,29.8,29.96,North,-999,-999.0,-999.0,38,0.00,,,0.00,meteohub,2013-01-11 20:32:00,
2013-01-11 12:38:00,54.5,30.0,29.96,North,-999,-999.0,-999.0,38,0.00,,,0.00,meteohub,2013-01-11 20:38:00,
2013-01-11 12:43:00,54.7,29.5,29.96,North,-999,-999.0,-999.0,38,0.00,,,0.00,meteohub,2013-01-11 20:43:00,
2013-01-11 12:48:00,54.7,29.5,29.96,North,-999,-999.0,-999.0,38,0.00,,,0.00,meteohub,2013-01-11 20:48:00,
2013-01-11 12:53:00,54.9,29.7,29.96,North,-999,-999.0,-999.0,38,0.00,,,0.00,meteohub,2013-01-11 20:53:00,
2013-01-11 12:58:00,54.9,29.7,29.96,North,-999,-999.0,-999.0,38,0.00,,,0.00,meteohub,2013-01-11 20:58:00,
2013-01-11 13:03:00,54.9,29.7,29.96,North,-999,-999.0,-999.0,39,0.00,,,0.00,meteohub,2013-01-11 21:03:00,
2013-01-11 13:08:00,55.0,29.8,29.96,North,-999,-999.0,-999.0,39,0.00,,,0.00,meteohub,2013-01-11 21:08:00,
2013-01-11 13:13:00,55.2,30.0,29.96,North,-999,-999.0,-999.0,39,0.00,,,0.00,meteohub,2013-01-11 21:13:00,
2013-01-11 13:18:00,55.6,30.4,29.96,North,-999,-999.0,-999.0,39,0.00,,,0.00,meteohub,2013-01-11 21:18:00,
2013-01-11 13:23:00,55.6,29.7,29.96,North,-999,-999.0,-999.0,38,0.00,,,0.00,meteohub,2013-01-11 21:23:00,
2013-01-11 13:29:00,55.4,29.5,29.96,North,-999,-999.0,-999.0,38,0.00,,,0.00,meteohub,2013-01-11 21:29:00,
2013-01-11 13:34:00,55.4,29.5,29.96,North,-999,-999.0,-999.0,38,0.00,,,0.00,meteohub,2013-01-11 21:34:00,
2013-01-11 13:39:00,55.4,30.2,29.96,North,-999,-999.0,-999.0,38,0.00,,,0.00,meteohub,2013-01-11 21:39:00,
2013-01-11 13:44:00,55.2,30.0,29.96,North,-999,-999.0,-999.0,38,0.00,,,0.00,meteohub,2013-01-11 21:44:00,
2013-01-11 13:49:00,55.0,29.8,29.96,North,-999,-999.0,-999.0,38,0.00,,,0.00,meteohub,2013-01-11 21:49:00,
2013-01-11 13:54:00,55.0,30.6,29.93,North,-999,-999.0,-999.0,38,0.00,,,0.00,meteohub,2013-01-11 21:54:00,
2013-01-11 13:59:00,55.0,30.6,29.93,North,-999,-999.0,-999.0,38,0.00,,,0.00,meteohub,2013-01-11 21:59:00,
2013-01-11 14:04:00,55.0,31.1,29.93,North,-999,-999.0,-999.0,38,0.00,,,0.00,meteohub,2013-01-11 22:04:00,
2013-01-11 14:09:00,54.9,30.4,29.93,North,-999,-999.0,-999.0,38,0.00,,,0.00,meteohub,2013-01-11 22:09:00,
2013-01-11 14:14:00,54.7,30.9,29.93,North,-999,-999.0,-999.0,38,0.00,,,0.00,meteohub,2013-01-11 22:14:00,
2013-01-11 14:20:00,54.7,30.9,29.93,North,-999,-999.0,-999.0,38,0.00,,,0.00,meteohub,2013-01-11 22:20:00,
2013-01-11 14:25:00,54.9,30.9,29.93,North,-999,-999.0,-999.0,38,0.00,,,0.00,meteohub,2013-01-11 22:25:00,
2013-01-11 14:30:00,54.9,31.6,29.93,North,-999,-999.0,-999.0,38,0.00,,,0.00,meteohub,2013-01-11 22:30:00,
2013-01-11 14:35:00,54.9,30.9,29.93,North,-999,-999.0,-999.0,38,0.00,,,0.00,meteohub,2013-01-11 22:35:00,
2013-01-11 14:40:00,54.9,30.9,29.93,North,-999,-999.0,-999.0,38,0.00,,,0.00,meteohub,2013-01-11 22:40:00,
2013-01-11 14:45:00,54.5,30.7,29.93,North,-999,-999.0,-999.0,38,0.00,,,0.00,meteohub,2013-01-11 22:45:00,
2013-01-11 14:50:00,54.3,30.6,29.93,North,-999,-999.0,-999.0,38,0.00,,,0.00,meteohub,2013-01-11 22:50:00,
2013-01-11 14:55:00,54.1,30.9,29.93,North,-999,-999.0,-999.0,38,0.00,,,0.00,meteohub,2013-01-11 22:55:00,
2013-01-11 15:00:00,54.3,30.6,29.93,North,-999,-999.0,-999.0,38,0.00,,,0.00,meteohub,2013-01-11 23:00:00,
2013-01-11 15:05:00,54.3,30.6,29.93,North,-999,-999.0,-999.0,38,0.00,,,0.00,meteohub,2013-01-11 23:05:00,
2013-01-11 15:11:00,54.3,31.1,29.93,North,-999,-999.0,-999.0,38,0.00,,,0.00,meteohub,2013-01-11 23:11:00,
2013-01-11 15:16:00,54.3,31.1,29.93,North,-999,-999.0,-999.0,38,0.00,,,0.00,meteohub,2013-01-11 23:16:00,
2013-01-11 15:21:00,54.5,31.3,29.93,North,-999,-999.0,-999.0,38,0.00,,,0.00,meteohub,2013-01-11 23:21:00,
2013-01-11 15:26:00,54.3,31.1,29.93,North,-999,-999.0,-999.0,38,0.00,,,0.00,meteohub,2013-01-11 23:26:00,
2013-01-11 15:31:00,54.1,31.5,29.93,North,-999,-999.0,-999.0,38,0.00,,,0.00,meteohub,2013-01-11 23:31:00,
2013-01-11 15:36:00,54.0,31.5,29.93,North,-999,-999.0,-999.0,38,0.00,,,0.00,meteohub,2013-01-11 23:36:00,
2013-01-11 15:41:00,54.0,31.5,29.93,North,-999,-999.0,-999.0,39,0.00,,,0.00,meteohub,2013-01-11 23:41:00,
2013-01-11 15:46:00,53.8,31.3,29.93,North,-999,-999.0,-999.0,39,0.00,,,0.00,meteohub,2013-01-11 23:46:00,
2013-01-11 15:51:00,53.6,31.6,29.93,North,-999,-999.0,-999.0,38,0.00,,,0.00,meteohub,2013-01-11 23:51:00,
2013-01-11 15:56:00,53.6,31.1,29.93,North,-999,-999.0,-999.0,39,0.00,,,0.00,meteohub,2013-01-11 23:56:00,
2013-01-11 16:02:00,53.6,31.6,29.93,North,-999,-999.0,-999.0,39,0.00,,,0.00,meteohub,2013-01-12 00:02:00,
2013-01-11 16:07:00,53.4,31.5,29.93,North,-999,-999.0,-999.0,39,0.00,,,0.00,meteohub,2013-01-12 00:07:00,
2013-01-11 16:12:00,53.2,32.4,29.93,North,-999,-999.0,-999.0,39,0.00,,,0.00,meteohub,2013-01-12 00:12:00,
2013-01-11 16:17:00,53.1,32.4,29.93,North,-999,-999.0,-999.0,39,0.00,,,0.00,meteohub,2013-01-12 00:17:00,
2013-01-11 16:22:00,52.7,32.5,29.93,North,-999,-999.0,-999.0,39,0.00,,,0.00,meteohub,2013-01-12 00:22:00,
2013-01-11 16:27:00,52.5,32.4,29.93,North,-999,-999.0,-999.0,39,0.00,,,0.00,meteohub,2013-01-12 00:27:00,
2013-01-11 16:32:00,52.5,32.4,29.93,North,-999,-999.0,-999.0,39,0.00,,,0.00,meteohub,2013-01-12 00:32:00,
2013-01-11 16:37:00,52.2,32.0,29.93,North,-999,-999.0,-999.0,39,0.00,,,0.00,meteohub,2013-01-12 00:37:00,
2013-01-11 16:42:00,52.0,32.4,29.93,North,-999,-999.0,-999.0,39,0.00,,,0.00,meteohub,2013-01-12 00:42:00,
2013-01-11 16:47:00,51.6,32.5,29.93,North,-999,-999.0,-999.0,39,0.00,,,0.00,meteohub,2013-01-12 00:47:00,
2013-01-11 16:52:00,51.4,32.4,29.93,North,-999,-999.0,-999.0,39,0.00,,,0.00,meteohub,2013-01-12 00:52:00,
2013-01-11 16:57:00,51.1,32.0,29.90,North,-999,-999.0,-999.0,39,0.00,,,0.00,meteohub,2013-01-12 00:57:00,
2013-01-11 17:02:00,50.7,32.7,29.90,North,-999,-999.0,-999.0,39,0.00,,,0.00,meteohub,2013-01-12 01:02:00,
2013-01-11 17:07:00,50.2,32.7,29.90,North,-999,-999.0,-999.0,39,0.00,,,0.00,meteohub,2013-01-12 01:07:00,
2013-01-11 17:12:00,49.8,32.9,29.90,North,-999,-999.0,-999.0,39,0.00,,,0.00,meteohub,2013-01-12 01:12:00,
2013-01-11 17:17:00,49.6,33.3,29.90,North,-999,-999.0,-999.0,39,0.00,,,0.00,meteohub,2013-01-12 01:17:00,
2013-01-11 17:22:00,49.3,32.9,29.90,North,-999,-999.0,-999.0,38,0.00,,,0.00,meteohub,2013-01-12 01:22:00,
2013-01-11 17:27:00,49.1,33.3,29.90,North,-999,-999.0,-999.0,38,0.00,,,0.00,meteohub,2013-01-12 01:27:00,
2013-01-11 17:32:00,48.9,33.1,29.90,North,-999,-999.0,-999.0,38,0.00,,,0.00,meteohub,2013-01-12 01:32:00,
2013-01-11 17:37:00,48.6,33.1,29.90,North,-999,-999.0,-999.0,38,0.00,,,0.00,meteohub,2013-01-12 01:37:00,
2013-01-11 17:42:00,48.4,32.9,29.90,North,-999,-999.0,-999.0,38,0.00,,,0.00,meteohub,2013-01-12 01:42:00,
2013-01-11 17:47:00,48.2,33.3,29.90,North,-999,-999.0,-999.0,38,0.00,,,0.00,meteohub,2013-01-12 01:47:00,
2013-01-11 17:52:00,48.0,33.4,29.90,North,-999,-999.0,-999.0,38,0.00,,,0.00,meteohub,2013-01-12 01:52:00,
2013-01-11 17:57:00,47.7,33.3,29.90,North,-999,-999.0,-999.0,38,0.00,,,0.00,meteohub,2013-01-12 01:57:00,
2013-01-11 18:02:00,47.7,33.3,29.90,North,-999,-999.0,-999.0,38,0.00,,,0.00,meteohub,2013-01-12 02:02:00,
2013-01-11 18:07:00,47.7,33.6,29.90,North,-999,-999.0,-999.0,39,0.00,,,0.00,meteohub,2013-01-12 02:07:00,
2013-01-11 18:12:00,47.5,33.4,29.90,North,-999,-999.0,-999.0,38,0.00,,,0.00,meteohub,2013-01-12 02:12:00,
2013-01-11 18:17:00,47.3,33.3,29.90,North,-999,-999.0,-999.0,38,0.00,,,0.00,meteohub,2013-01-12 02:17:00,
2013-01-11 18:22:00,47.3,33.6,29.90,North,-999,-999.0,-999.0,38,0.00,,,0.00,meteohub,2013-01-12 02:22:00,
2013-01-11 18:27:00,47.3,33.6,29.90,North,-999,-999.0,-999.0,39,0.00,,,0.00,meteohub,2013-01-12 02:27:00,
2013-01-11 18:32:00,47.3,33.6,29.90,North,-999,-999.0,-999.0,39,0.00,,,0.00,meteohub,2013-01-12 02:32:00,
2013-01-11 18:37:00,47.3,33.3,29.90,North,-999,-999.0,-999.0,39,0.00,,,0.00,meteohub,2013-01-12 02:37:00,
2013-01-11 18:43:00,47.3,33.6,29.90,North,-999,-999.0,-999.0,39,0.00,,,0.00,meteohub,2013-01-12 02:43:00,
2013-01-11 18:48:00,47.3,33.6,29.90,North,-999,-999.0,-999.0,39,0.00,,,0.00,meteohub,2013-01-12 02:48:00,
2013-01-11 18:53:00,47.3,33.6,29.90,North,-999,-999.0,-999.0,39,0.00,,,0.00,meteohub,2013-01-12 02:53:00,
2013-01-11 18:58:00,47.3,33.6,29.90,North,-999,-999.0,-999.0,39,0.00,,,0.00,meteohub,2013-01-12 02:58:00,
2013-01-11 19:03:00,47.3,33.6,29.90,North,-999,-999.0,-999.0,38,0.00,,,0.00,meteohub,2013-01-12 03:03:00,
2013-01-11 19:08:00,47.3,34.2,29.90,North,-999,-999.0,-999.0,38,0.00,,,0.00,meteohub,2013-01-12 03:08:00,
2013-01-11 19:13:00,47.3,34.2,29.90,North,-999,-999.0,-999.0,38,0.00,,,0.00,meteohub,2013-01-12 03:13:00,
2013-01-11 19:18:00,47.3,34.2,29.90,North,-999,-999.0,-999.0,39,0.00,,,0.00,meteohub,2013-01-12 03:18:00,
2013-01-11 19:23:00,47.1,34.0,29.90,North,-999,-999.0,-999.0,39,0.00,,,0.00,meteohub,2013-01-12 03:23:00,
2013-01-11 19:29:00,46.9,33.8,29.90,North,-999,-999.0,-999.0,39,0.00,,,0.00,meteohub,2013-01-12 03:29:00,
2013-01-11 19:34:00,46.8,34.0,29.90,North,-999,-999.0,-999.0,38,0.00,,,0.00,meteohub,2013-01-12 03:34:00,
2013-01-11 19:39:00,46.6,34.3,29.90,North,-999,-999.0,-999.0,38,0.00,,,0.00,meteohub,2013-01-12 03:39:00,
2013-01-11 19:44:00,46.6,34.7,29.90,North,-999,-999.0,-999.0,38,0.00,,,0.00,meteohub,2013-01-12 03:44:00,
2013-01-11 19:49:00,46.6,34.7,29.90,North,-999,-999.0,-999.0,38,0.00,,,0.00,meteohub,2013-01-12 03:49:00,
2013-01-11 19:54:00,46.6,35.1,29.90,North,-999,-999.0,-999.0,39,0.00,,,0.00,meteohub,2013-01-12 03:54:00,
2013-01-11 19:59:00,46.4,34.9,29.90,North,-999,-999.0,-999.0,39,0.00,,,0.00,meteohub,2013-01-12 03:59:00,
2013-01-11 20:04:00,46.4,35.2,29.90,North,-999,-999.0,-999.0,39,0.00,,,0.00,meteohub,2013-01-12 04:04:00,
2013-01-11 20:10:00,46.4,35.2,29.90,North,-999,-999.0,-999.0,39,0.00,,,0.00,meteohub,2013-01-12 04:10:00,
2013-01-11 20:15:00,46.6,35.4,29.90,North,-999,-999.0,-999.0,39,0.00,,,0.00,meteohub,2013-01-12 04:15:00,
2013-01-11 20:20:00,46.6,35.4,29.90,North,-999,-999.0,-999.0,39,0.00,,,0.00,meteohub,2013-01-12 04:20:00,
2013-01-11 20:25:00,46.4,35.2,29.90,North,-999,-999.0,-999.0,39,0.00,,,0.00,meteohub,2013-01-12 04:25:00,
2013-01-11 20:30:00,46.2,35.1,29.90,North,-999,-999.0,-999.0,39,0.00,,,0.00,meteohub,2013-01-12 04:30:00,
2013-01-11 20:35:00,46.0,34.9,29.90,North,-999,-999.0,-999.0,40,0.00,,,0.00,meteohub,2013-01-12 04:35:00,
2013-01-11 20:41:00,45.5,34.3,29.93,North,-999,-999.0,-999.0,40,0.00,,,0.00,meteohub,2013-01-12 04:41:00,
2013-01-11 20:46:00,45.3,34.3,29.93,North,-999,-999.0,-999.0,40,0.00,,,0.00,meteohub,2013-01-12 04:46:00,
2013-01-11 20:51:00,45.1,34.5,29.93,North,-999,-999.0,-999.0,40,0.00,,,0.00,meteohub,2013-01-12 04:51:00,
2013-01-11 20:56:00,44.8,34.5,29.93,North,-999,-999.0,-999.0,40,0.00,,,0.00,meteohub,2013-01-12 04:56:00,
2013-01-11 21:00:00,44.8,34.5,29.93,North,-999,-999.0,-999.0,40,0.00,,,0.00,meteohub,2013-01-12 05:00:00,
2013-01-11 21:01:00,44.8,34.5,29.93,North,-999,-999.0,-999.0,40,0.00,,,0.00,meteohub,2013-01-12 05:01:00,
2013-01-11 21:03:00,44.8,34.9,29.93,North,-999,-999.0,-999.0,39,0.00,,,0.00,meteohub,2013-01-12 05:03:00,
2013-01-11 21:08:00,44.8,34.9,29.93,North,-999,-999.0,-999.0,39,0.00,,,0.00,meteohub,2013-01-12 05:08:00,
2013-01-11 21:13:00,44.6,35.1,29.93,North,-999,-999.0,-999.0,39,0.00,,,0.00,meteohub,2013-01-12 05:13:00,
2013-01-11 21:19:00,44.8,35.2,29.93,North,-999,-999.0,-999.0,40,0.00,,,0.00,meteohub,2013-01-12 05:19:00,
2013-01-11 21:24:00,45.0,35.8,29.93,North,-999,-999.0,-999.0,40,0.00,,,0.00,meteohub,2013-01-12 05:24:00,
2013-01-11 21:29:00,45.1,36.0,29.93,North,-999,-999.0,-999.0,40,0.00,,,0.00,meteohub,2013-01-12 05:29:00,
2013-01-11 21:34:00,45.1,36.0,29.93,North,-999,-999.0,-999.0,40,0.00,,,0.00,meteohub,2013-01-12 05:34:00,
2013-01-11 21:39:00,45.1,36.3,29.93,North,-999,-999.0,-999.0,39,0.00,,,0.00,meteohub,2013-01-12 05:39:00,
2013-01-11 21:44:00,45.3,36.5,29.93,North,-999,-999.0,-999.0,39,0.00,,,0.00,meteohub,2013-01-12 05:44:00,
2013-01-11 21:49:00,45.7,36.9,29.93,North,-999,-999.0,-999.0,39,0.00,,,0.00,meteohub,2013-01-12 05:49:00,
2013-01-11 21:54:00,45.9,36.3,29.93,North,-999,-999.0,-999.0,39,0.00,,,0.00,meteohub,2013-01-12 05:54:00,
2013-01-11 21:59:00,46.0,35.8,29.93,North,-999,-999.0,-999.0,39,0.00,,,0.00,meteohub,2013-01-12 05:59:00,
2013-01-11 22:04:00,46.0,35.2,29.93,North,-999,-999.0,-999.0,39,0.00,,,0.00,meteohub,2013-01-12 06:04:00,
2013-01-11 22:10:00,46.0,34.9,29.93,North,-999,-999.0,-999.0,39,0.00,,,0.00,meteohub,2013-01-12 06:10:00,
2013-01-11 22:15:00,46.0,34.2,29.93,North,-999,-999.0,-999.0,39,0.00,,,0.00,meteohub,2013-01-12 06:15:00,
2013-01-11 22:20:00,46.0,33.3,29.93,North,-999,-999.0,-999.0,39,0.00,,,0.00,meteohub,2013-01-12 06:20:00,
2013-01-11 22:25:00,46.0,33.3,29.93,North,-999,-999.0,-999.0,39,0.00,,,0.00,meteohub,2013-01-12 06:25:00,
2013-01-11 22:30:00,46.0,33.3,29.93,North,-999,-999.0,-999.0,39,0.00,,,0.00,meteohub,2013-01-12 06:30:00,
2013-01-11 22:35:00,45.9,33.6,29.93,North,-999,-999.0,-999.0,39,0.00,,,0.00,meteohub,2013-01-12 06:35:00,
2013-01-11 22:40:00,45.7,33.4,29.93,North,-999,-999.0,-999.0,39,0.00,,,0.00,meteohub,2013-01-12 06:40:00,
2013-01-11 22:46:00,45.5,33.6,29.93,North,-999,-999.0,-999.0,39,0.00,,,0.00,meteohub,2013-01-12 06:46:00,
2013-01-11 22:51:00,45.1,33.3,29.93,North,-999,-999.0,-999.0,39,0.00,,,0.00,meteohub,2013-01-12 06:51:00,
2013-01-11 22:56:00,45.1,33.3,29.93,North,-999,-999.0,-999.0,39,0.00,,,0.00,meteohub,2013-01-12 06:56:00,
2013-01-11 23:01:00,44.8,32.9,29.93,North,-999,-999.0,-999.0,39,0.00,,,0.00,meteohub,2013-01-12 07:01:00,
2013-01-11 23:06:00,44.4,32.5,29.93,North,-999,-999.0,-999.0,39,0.00,,,0.00,meteohub,2013-01-12 07:06:00,
2013-01-11 23:11:00,44.1,32.7,29.93,North,-999,-999.0,-999.0,39,0.00,,,0.00,meteohub,2013-01-12 07:11:00,
2013-01-11 23:16:00,43.7,32.7,29.93,North,-999,-999.0,-999.0,39,0.00,,,0.00,meteohub,2013-01-12 07:16:00,
2013-01-11 23:21:00,43.5,32.5,29.93,North,-999,-999.0,-999.0,39,0.00,,,0.00,meteohub,2013-01-12 07:21:00,
2013-01-11 23:26:00,43.5,32.5,29.93,North,-999,-999.0,-999.0,39,0.00,,,0.00,meteohub,2013-01-12 07:26:00,
2013-01-11 23:31:00,43.3,32.4,29.93,North,-999,-999.0,-999.0,39,0.00,,,0.00,meteohub,2013-01-12 07:31:00,
2013-01-11 23:36:00,43.3,32.4,29.93,North,-999,-999.0,-999.0,39,0.00,,,0.00,meteohub,2013-01-12 07:36:00,
2013-01-11 23:42:00,43.0,32.0,29.96,North,-999,-999.0,-999.0,39,0.00,,,0.00,meteohub,2013-01-12 07:42:00,
2013-01-11 23:47:00,42.8,31.8,29.96,North,-999,-999.0,-999.0,39,0.00,,,0.00,meteohub,2013-01-12 07:47:00,
2013-01-11 23:52:00,42.4,31.8,29.96,North,-999,-999.0,-999.0,39,0.00,,,0.00,meteohub,2013-01-12 07:52:00,
2013-01-11 23:57:00,42.3,31.6,29.96,North,-999,-999.0,-999.0,39,0.00,,,0.00,meteohub,2013-01-12 07:57:00,